Tracking 23731 objects as of 27-Sep-2021
HD Live streaming from Space Station
objects crossing your sky now

BLOCK DM-SL R/B

Track BLOCK DM-SL R/B now!


NORAD ID: 29046
Int'l Code: 2006-010B
Perigee: 1,666.0 km
Apogee: 35,624.6 km
Inclination: 0.8 °
Period: 656.3 minutes
Semi major axis: 25016 km
RCS: 20.8191 m2 (large)
Launch date: April 12, 2006
Source: Sea Launch (SEAL)
Launch site: SEA LAUNCH (SEAL)

Note: This is a ROCKET BODY
aabbcc
Your satellite tracking list
Your tracking list is empty




NASA's NSSDC Master Catalog

Two Line Element Set (TLE):
1 29046U 06010B   21270.33848638 -.00000155  00000-0  00000-0 0  9995
2 29046   0.8047 336.0899 6787294  55.2841 355.3213  2.19416023123958
Source of the keplerian elements: AFSPC